Location: De Greiden
(52.9496°N, 5.9137°E)
Time: 02:04:39
(UTC+00:00)

Helios 1A Rocket - Pass Details

Date: 24 January 2021
Orbit: 562 x 587 km, 98.3° (Epoch: 26 February)

Event Time Altitude Azimuth Distance (km) Brightness Sun altitude
Rises 17:13:45 0° 131° (SE) 2,810 6.1 -10.0°
Reaches altitude 10° 17:16:08 10° 119° (ESE) 1,914 5.2 -10.4°
Maximum altitude 17:19:37 27° 62° (ENE) 1,160 3.9 -10.9°
Drops below altitude 10° 17:23:07 10° 5° (N) 1,924 5.4 -11.4°
Sets 17:25:31 0° 353° (N) 2,827 6.4 -11.7°
